Sample Charts Sidebar
> Live data! Your data is on the web site for you to access within minutes
 
> Detailed data is easily downloaded as data file, which can be opened with Excel
 
> Charts can be customised if necessary
  Chart 1
 

(A maximum of 50 rows are displayed here. Use "Export Data" to see all rows in the date range.)
Date Collected Temp
(Celcius)
Wind-chill
(Celcius)
Wind Speed
(km/hr)
Gust
(km/hr)
Wind Direction
(degrees)
2018-09-25 00:00 6.2 6.3 1 1 14
2018-09-24 23:00 6.9 6.9 0 2 286
2018-09-24 22:00 7.0 7.2 0 2 298
2018-09-24 21:00 7.9 7.8 2 4 147
2018-09-24 20:00 8.6 8.7 1 4 146
2018-09-24 19:00 9.6 9.5 2 6 115
2018-09-24 18:00 10.7 10.7 2 6 86
2018-09-24 17:00 12.1 12.1 2 5 89
2018-09-24 16:00 13.0 13.0 2 5 93
2018-09-24 15:00 14.0 13.2 4 10 109
2018-09-24 14:00 14.4 12.2 6 13 128
2018-09-24 13:00 15.2 13.9 4 11 101
2018-09-24 12:00 15.5 15.1 3 8 93
2018-09-24 11:00 14.4 13.5 3 10 124
2018-09-24 10:00 12.5 12.1 2 6 125
2018-09-24 09:00 7.6 7.0 1 3 334
2018-09-24 08:00 5.2 5.2 1 3 6
2018-09-24 07:00 3.2 2.8 1 6 143
2018-09-24 06:00 2.4 2.4 0 2 16
2018-09-24 05:00 3.0 3.1 0 2 10
2018-09-24 04:00 3.5 3.5 0 2 36
2018-09-24 03:00 4.4 4.4 0 2 325
2018-09-24 02:00 4.4 4.4 1 2 21
2018-09-24 01:00 4.7 4.8 0 2 3
2018-09-24 00:00 5.8 5.9 1 3 355
2018-09-23 23:00 7.0 7.0 0 2 23
2018-09-23 22:00 7.5 7.5 1 2 24
2018-09-23 21:00 6.8 6.9 0 1 16
2018-09-23 20:00 8.0 8.1 1 3 114
2018-09-23 19:00 8.8 8.5 2 7 167
2018-09-23 18:00 9.8 9.7 2 5 185
2018-09-23 17:00 10.3 9.6 3 11 209
2018-09-23 16:00 11.4 10.9 1 8 217
2018-09-23 15:00 12.1 10.2 5 11 204
2018-09-23 14:00 13.0 10.9 5 11 198
2018-09-23 13:00 13.5 11.2 5 15 176
2018-09-23 12:00 13.0 11.8 4 10 185
2018-09-23 11:00 12.4 11.8 3 8 200
2018-09-23 10:00 11.6 10.7 4 8 210
2018-09-23 09:00 10.7 9.7 3 7 200
2018-09-23 08:00 8.0 7.9 1 3 161
2018-09-23 07:00 8.8 8.7 1 3 203
2018-09-23 06:00 8.4 8.1 2 5 185
2018-09-23 05:00 7.9 7.7 2 5 182
2018-09-23 04:00 7.4 7.5 0 2 217
2018-09-23 03:00 8.3 8.5 0 2 178
2018-09-23 02:00 9.8 9.6 2 7 185
2018-09-23 01:00 10.0 9.8 2 8 199
2018-09-23 00:00 10.2 10.1 2 5 197
2018-09-22 23:00 10.2 10.1 2 5 216